Погода в Садовом

Россия / Ставропольский край     45°17′16″N   44°38′54″E
темп.,
°C
ветер,
м/с
пор.,
м/с
влажн.,
%
обл.,
%
осадки,
мм/ч
давл.,
гПа
погр.,
м
12 апреля, пн
пн1200:00+11в3465100 0.0 101657
03:00+10всв2366100 0.0 101622
06:00+10вюв3472100 0.0 1017106
09:00+13вюв4563100 0.0 1019450
12:00+16вюв4651100 0.0 1019702
15:00+15вюв6761100 0.0 1020735
18:00+14вюв4767100 0.0 1021339
21:00+12в3670100 0.0 1022164
13 апреля, вт
вт1300:00+10вюв337593 0.0 102126
03:00+11вюв226999 0.1 102233
06:00+11всв366896 0.1 1021176
09:00+12вюв3566100 0.1 1022372
12:00+16вюв5765100 0.0 1021741
15:00+21вюв71041100 0.0 10192293
18:00+17вюв7124129 0.0 1020492
21:00+12вюв5115098 0.0 1020294
14 апреля, ср
ср1400:00+10всв41055100 0.0 1018220
03:00+9всв336392 0.0 101736
06:00+8всв2267100 0.0 101624
09:00+14в4548100 0.0 1016478
12:00+17вюв4841100 0.0 1015785
15:00+20юв6734100 0.0 10141538
18:00+16вюв4749100 0.0 1015211
21:00+13вюв5857100 0.0 1016199
15 апреля, чт
чт1500:00+10сз117462 0.0 101625
03:00+9зсз4593100 0.0 1016101
06:00+9зсз4793100 0.0 1016196
09:00+14сз446879 0.0 1016533
12:00+18сз324874 0.0 10151092
15:00+21ссз12385 0.0 10131675
18:00+19св234616 0.0 101332
21:00+15с125529 0.0 101411
16 апреля, пт
пт1600:00+13с116348 0.0 101311
03:00+12св22666 0.0 101310
06:00+13сз22685 0.0 101411
09:00+17сз775999 0.0 1015648
12:00+19ссз7655100 0.0 10151347
15:00+17сз9859100 1.0 10161156
18:00+12сз5986100 0.8 1017423
21:00+13сз117694 0.9 101628